Location: Melizzano
(41.1500°N, 14.5000°E)
Time: 19:48:45
(UTC+00:00)

USA 308 - Pass Details

Date: 11 May 2021
Orbit: 568 x 576 km, 54.0° (Epoch: 10 May)

Event Time Altitude Azimuth Distance (km) Brightness Sun altitude
Rises 21:23:30 0° 309° (NW) 2,785 7.4 -26.8°
Reaches altitude 10° 21:25:46 10° 308° (NW) 1,884 6.3 -27.0°
Enters shadow 21:28:44 44° 301° (WNW) 806 3.9 -27.2°
